Location: Sternwarte_Laufen
(47.9344°N, 12.9346°E)
Time: 00:41:00
(UTC+02:00)

ISS - Pass Details

Date: 21 May 2017
Orbit: 402 x 408 km, 51.6° (Epoch: 27 May)

Event Time Altitude Azimuth Distance (km) Brightness Sun altitude
Exits shadow 02:57:24 - 287° (WNW) 1,756 -0.7 -17.4°
Reaches altitude 10° 02:58:08 10° 290° (WNW) 1,468 -1.1 -17.3°
Maximum altitude 03:01:17 41° 3° (N) 599 -2.5 -17.0°
Drops below altitude 10° 03:04:26 10° 76° (ENE) 1,464 -0.4 -16.8°
Sets 03:06:34 0° 83° (E) 2,322 0.6 -16.6°
